{"data":{"norad_id":36792,"epoch":"2026-09-20T03:51:32.548896Z","epoch_age_seconds":47432,"freshness":"FRESH","line1":"1 36792U 10034A   26263.16079339 -.00000005  00000+0  00000+0 0  9996","line2":"2 36792   0.0149 237.8520 0002497 268.1789 152.1173  1.00272544 59271","mean_motion":1.00272544,"eccentricity":0.0002497,"inclination_deg":0.0149,"raan_deg":237.852,"arg_perigee_deg":268.1789,"mean_anomaly_deg":152.1173,"bstar":0,"rev_number":5927,"period_min":1436.0860336804,"perigee_km":35775.853706839,"apogee_km":35796.910667721,"semimajor_km":42164.51918728,"source":"CELESTRAK","updated_at":"2026-09-20T09:00:35.164253Z"}}